User: anonymous   Login
Location: Oshawa
(43.9000°N, 78.8670°W)
Time: 06:17:46
(UTC-04:00)
Language:

Cosmos 1953 Rocket - Orbit

View from above orbital plane
View from above orbital plane
View from above satellite
View from above satellite

Ground track
Ground track

The orbit data is extracted from the following two-line orbital elements,

1 19211U 88050B   15085.48415132  .00000603  00000-0  71638-4 0  9990
2 19211 082.5249 243.3089 0020553 278.8694 136.9751 14.82680707446205
Epoch (UTC): 26 March 2015 11:37:10
Eccentricity: 0.0020553
inclination: 82.5249°
perigee height: 606 km
apogee height: 635 km
right ascension of ascending node: 243.3089°
argument of perigee: 278.8694°
revolutions per day: 14.82680707
mean anomaly at epoch: 136.9751°
orbit number at epoch: 44620

The dashed part of the orbit path shows where the satellite is in the earth's shadow,  

DLR